WetterOnline ( https://www.wetteronline.ch )

Wetter aktuell Freiburg

Aktuelles Wetter: Freiburg/Flugplatz (236m)

6-stündlich | Neueste Meldungen
Ortszeit Temperatur Wetter
Mi, 17.07. 2:00 14.7° C wolkig
Di, 16.07. 20:00 24.2° C leicht bewölkt
Di, 16.07. 14:00 23.6° C wolkenlos
Di, 16.07. 8:00 12.7° C wolkenlos
Di, 16.07. 2:00 13.9° C wolkenlos
Mo, 15.07. 20:00 22.2° C wolkenlos
Mo, 15.07. 14:00 20.0° C bedeckt
Mo, 15.07. 8:00 13.2° C fast wolkenlos
Ortszeit Temperatur Wetter
Mi, 17.07. 6:00 12.2° C wolkig
Mi, 17.07. 5:50 12.2° C wolkig
Mi, 17.07. 5:40 12.4° C wolkig
Mi, 17.07. 5:30 12.7° C wolkig
Mi, 17.07. 5:20 12.7° C wolkig
Mi, 17.07. 5:10 12.9° C wolkig
Mi, 17.07. 5:00 13.1° C wolkig
Mi, 17.07. 4:30 13.8° C leicht bewölkt
Mi, 17.07. 4:00 13.2° C wolkig
Mi, 17.07. 3:30 13.9° C wolkig
Mi, 17.07. 3:00 13.8° C wolkig
Ortszeit Relative Feuchte Sichtweite
Mi, 17.07. 2:00 83% 28 km
Di, 16.07. 20:00 44% 50 km
Di, 16.07. 14:00 48% 35 km
Di, 16.07. 8:00 84% 5.0 km
Di, 16.07. 2:00 92% 21 km
Mo, 15.07. 20:00 55% 45 km
Mo, 15.07. 14:00 65% 50 km
Mo, 15.07. 8:00 89% 30 km
Ortszeit Relative Feuchte Sichtweite
Mi, 17.07. 6:00 94% 14 km
Mi, 17.07. 5:50 94% -
Mi, 17.07. 5:40 92% -
Mi, 17.07. 5:30 92% 16 km
Mi, 17.07. 5:20 92% -
Mi, 17.07. 5:10 91% -
Mi, 17.07. 5:00 91% 21 km
Mi, 17.07. 4:30 87% 24 km
Mi, 17.07. 4:00 89% 22 km
Mi, 17.07. 3:30 88% 18 km
Mi, 17.07. 3:00 87% 23 km
Ortszeit Niederschlagsmenge Niederschlagsart
Mi, 17.07. 2:00 0.0 l/m2 in 6 Std. -
Di, 16.07. 20:00 0.0 l/m2 in 12 Std. -
Di, 16.07. 14:00 0.0 l/m2 in 6 Std. -
Di, 16.07. 8:00 0.0 l/m2 in 12 Std. -
Di, 16.07. 2:00 0.0 l/m2 in 6 Std. -
Mo, 15.07. 20:00 0.0 l/m2 in 12 Std. -
Mo, 15.07. 14:00 0.0 l/m2 in 6 Std. -
Mo, 15.07. 8:00 6 l/m2 in 12 Std. -
Ortszeit Niederschlagsmenge Niederschlagsart
Mi, 17.07. 6:00 0.0 l/m2 in 1 Std. -
Mi, 17.07. 5:50 keine Meldung -
Mi, 17.07. 5:40 keine Meldung -
Mi, 17.07. 5:30 0.0 l/m2 in 1 Std. -
Mi, 17.07. 5:20 keine Meldung -
Mi, 17.07. 5:10 keine Meldung -
Mi, 17.07. 5:00 0.0 l/m2 in 1 Std. -
Mi, 17.07. 4:30 0.0 l/m2 in 1 Std. -
Mi, 17.07. 4:00 0.0 l/m2 in 1 Std. -
Mi, 17.07. 3:30 0.0 l/m2 in 1 Std. -
Mi, 17.07. 3:00 0.0 l/m2 in 1 Std. -
Ortszeit Stärke Spitze Richtung
km/h Bft. km/h Grad Sektor
Mi, 17.07. 2:00 6 1 11 330° NW
Di, 16.07. 20:00 9 2 20 340° N
Di, 16.07. 14:00 7 2 14 310° NW
Di, 16.07. 8:00 4 1 11 330° NW
Di, 16.07. 2:00 7 2 22 330° NW
Mo, 15.07. 20:00 14 3 36 350° N
Mo, 15.07. 14:00 7 2 22 20° N
Mo, 15.07. 8:00 7 2 18 330° NW
Ortszeit Stärke Spitze Richtung
km/h Bft. km/h Grad Sektor
Mi, 17.07. 6:00 0 0 4 - -
Mi, 17.07. 5:50 0 0 - 350° N
Mi, 17.07. 5:40 2 1 - 290° W
Mi, 17.07. 5:30 4 1 4 360° N
Mi, 17.07. 5:20 4 1 - 360° N
Mi, 17.07. 5:10 4 1 - 30° NO
Mi, 17.07. 5:00 2 1 4 40° NO
Mi, 17.07. 4:30 2 1 4 210° SW
Mi, 17.07. 4:00 2 1 4 320° NW
Mi, 17.07. 3:30 4 1 4 290° W
Mi, 17.07. 3:00 0 0 7 - -
Ortszeit Untergrenze Bedeckung Gattung
total tief tief mittel hoch
Mi, 17.07. 2:00 8100 m 8/8 0/8 - - -
Di, 16.07. 20:00 9000 m 8/8 0/8 - - -
Di, 16.07. 14:00 - 0/8 0/8 - - -
Di, 16.07. 8:00 - 0/8 0/8 - - -
Di, 16.07. 2:00 - 0/8 0/8 - - -
Mo, 15.07. 20:00 - 0/8 0/8 - - -
Mo, 15.07. 14:00 870 m 8/8 8/8 - - -
Mo, 15.07. 8:00 180 m 1/8 1/8 - - -
Ortszeit Bedeckungsgrad in Achtel und Wolkenuntergrenze
Mi, 17.07. 6:00 1(9000m) 8(10500m) 8(10500m)
Mi, 17.07. 5:50 1(9000m) 8(10500m) 8(10500m)
Mi, 17.07. 5:40 1(9000m) 8(10500m) 8(10500m)
Mi, 17.07. 5:30 3(9000m) 5(10500m) 8(10500m)
Mi, 17.07. 5:20 3(9000m) 5(10500m) 8(10500m)
Mi, 17.07. 5:10 3(9000m) 8(10500m)
Mi, 17.07. 5:00 2(9000m) 7(10500m)
Mi, 17.07. 4:30 1(9000m) 5(10500m) 6(10500m)
Mi, 17.07. 4:00 8(10500m) 7(10500m) 8(10500m)
Mi, 17.07. 3:30 8(9000m)
Mi, 17.07. 3:00 6(8400m) 6(9000m) 8(9000m)
Ortszeit Luftdruck NN (hPa) Tendenz (hPa in 3 Std.)
Mi, 17.07. 2:00 1016 - 0,2
Di, 16.07. 20:00 1015 - 0,5
Di, 16.07. 14:00 1016 - 1,3
Di, 16.07. 8:00 1019 + 0,3
Di, 16.07. 2:00 1018 + 0,6
Mo, 15.07. 20:00 1015 + 0,1
Mo, 15.07. 14:00 1016 - 0,5
Mo, 15.07. 8:00 1017 + 0,6
Ortszeit Luftdruck NN (hPa) Tendenz (hPa in 3 Std.)
Mi, 17.07. 6:00 1016 - 0,5
Mi, 17.07. 5:50 1016 keine Meldung
Mi, 17.07. 5:40 1016 keine Meldung
Mi, 17.07. 5:30 1016 - 0,5
Mi, 17.07. 5:20 1016 keine Meldung
Mi, 17.07. 5:10 1016 keine Meldung
Mi, 17.07. 5:00 1016 - 0,4
Mi, 17.07. 4:30 1016 - 0,3
Mi, 17.07. 4:00 1016 - 0,3
Mi, 17.07. 3:30 1016 - 0,3
Mi, 17.07. 3:00 1016 - 0,1
Ortszeit Schneehöhe (cm)
Mi, 17.07. 2:00 -
Di, 16.07. 20:00 -
Di, 16.07. 14:00 -
Di, 16.07. 8:00 -
Di, 16.07. 2:00 -
Mo, 15.07. 20:00 -
Mo, 15.07. 14:00 -
Mo, 15.07. 8:00 -
Ortszeit Schneehöhe (cm)
Mi, 17.07. 6:00 -
Mi, 17.07. 5:50 -
Mi, 17.07. 5:40 -
Mi, 17.07. 5:30 -
Mi, 17.07. 5:20 -
Mi, 17.07. 5:10 -
Mi, 17.07. 5:00 -
Mi, 17.07. 4:30 -
Mi, 17.07. 4:00 -
Mi, 17.07. 3:30 -
Mi, 17.07. 3:00 -
Link zu dieser Seite / Seite empfehlen

Das Wetter in ...